Time,TemperatureF,DewpointF,PressureIn,WindDirection,WindDirectionDegrees,WindSpeedMPH,WindSpeedGustMPH,Humidity,HourlyPrecipIn,Conditions,Clouds,dailyrainin,SoftwareType,DateUTC
2013-01-24 00:03:00,25.6,19.7,30.43,SSW,212,0.0,0.0,78,0.00,RA,,0.00,WeatherDisplay:10.37,2013-01-24 07:03:00,
2013-01-24 00:08:00,25.7,20.1,30.42,SSW,212,0.0,0.0,79,0.00,RA,,0.00,WeatherDisplay:10.37,2013-01-24 07:08:00,
2013-01-24 00:13:00,25.8,19.9,30.42,SSW,212,0.0,0.0,78,0.00,CLR,,0.00,WeatherDisplay:10.37,2013-01-24 07:13:00,
2013-01-24 00:18:00,26.0,20.4,30.42,SSW,212,1.1,1.1,79,0.00,CLR,,0.00,WeatherDisplay:10.37,2013-01-24 07:18:00,
2013-01-24 00:23:00,26.1,20.5,30.42,SSW,212,0.0,0.0,79,0.00,CLR,,0.00,WeatherDisplay:10.37,2013-01-24 07:23:00,
2013-01-24 00:28:00,26.2,20.9,30.42,ESE,117,3.5,3.5,80,0.00,CLR,,0.00,WeatherDisplay:10.37,2013-01-24 07:28:00,
2013-01-24 00:33:00,26.3,20.7,30.41,North,350,2.3,2.3,79,0.00,CLR,,0.00,WeatherDisplay:10.37,2013-01-24 07:33:00,
2013-01-24 00:38:00,26.5,21.2,30.41,West,277,3.5,3.5,80,0.00,CLR,,0.00,WeatherDisplay:10.37,2013-01-24 07:38:00,
2013-01-24 00:43:00,26.6,21.0,30.41,West,277,0.0,0.0,79,0.00,CLR,,0.00,WeatherDisplay:10.37,2013-01-24 07:43:00,
2013-01-24 00:48:00,26.7,21.4,30.41,West,277,0.0,0.0,80,0.00,CLR,,0.00,WeatherDisplay:10.37,2013-01-24 07:48:00,
2013-01-24 00:53:00,26.9,21.6,30.41,West,277,0.0,0.0,80,0.00,CLR,,0.00,WeatherDisplay:10.37,2013-01-24 07:53:00,
2013-01-24 00:58:00,27.1,21.7,30.41,West,277,1.1,1.1,80,0.00,CLR,,0.00,WeatherDisplay:10.37,2013-01-24 07:58:00,
2013-01-24 01:03:00,27.2,21.8,30.40,SSW,203,1.1,1.1,80,0.00,CLR,,0.00,WeatherDisplay:10.37,2013-01-24 08:03:00,
2013-01-24 01:08:00,27.4,22.0,30.40,SSW,203,0.0,0.0,80,0.00,CLR,,0.00,WeatherDisplay:10.37,2013-01-24 08:08:00,
2013-01-24 01:13:00,27.4,22.0,30.40,SSW,203,0.0,0.0,80,0.00,CLR,,0.00,WeatherDisplay:10.37,2013-01-24 08:13:00,
2013-01-24 01:18:00,27.4,22.0,30.39,SSW,208,2.0,2.0,80,0.00,CLR,,0.00,WeatherDisplay:10.37,2013-01-24 08:18:00,
2013-01-24 01:23:00,27.4,21.7,30.40,West,268,0.0,0.0,79,0.00,CLR,,0.00,WeatherDisplay:10.37,2013-01-24 08:23:00,
2013-01-24 01:28:00,27.5,21.8,30.39,West,268,0.0,0.0,79,0.00,CLR,,0.00,WeatherDisplay:10.37,2013-01-24 08:28:00,
2013-01-24 01:33:00,27.4,21.7,30.39,West,268,0.0,0.0,79,0.00,CLR,,0.00,WeatherDisplay:10.37,2013-01-24 08:33:00,
2013-01-24 01:38:00,27.4,21.4,30.38,East,84,0.0,0.0,78,0.00,CLR,,0.00,WeatherDisplay:10.37,2013-01-24 08:38:00,
2013-01-24 01:43:00,27.3,21.6,30.39,NW,326,2.3,2.3,79,0.00,CLR,,0.00,WeatherDisplay:10.37,2013-01-24 08:43:00,
2013-01-24 01:48:00,27.2,21.5,30.38,NW,326,0.0,0.0,79,0.00,CLR,,0.00,WeatherDisplay:10.37,2013-01-24 08:48:00,
2013-01-24 01:53:00,27.1,21.5,30.38,ESE,113,0.0,0.0,79,0.00,CLR,,0.00,WeatherDisplay:10.37,2013-01-24 08:53:00,
2013-01-24 01:58:00,27.1,21.7,30.38,ESE,113,1.1,1.1,80,0.00,CLR,,0.00,WeatherDisplay:10.37,2013-01-24 08:58:00,
2013-01-24 02:03:00,27.0,21.7,30.38,ESE,113,0.0,0.0,80,0.00,CLR,,0.00,WeatherDisplay:10.37,2013-01-24 09:03:00,
2013-01-24 02:08:00,27.0,21.7,30.38,ESE,113,0.0,0.0,80,0.00,CLR,,0.00,WeatherDisplay:10.37,2013-01-24 09:08:00,
2013-01-24 02:13:00,26.9,21.6,30.38,ESE,113,0.0,0.0,80,0.00,CLR,,0.00,WeatherDisplay:10.37,2013-01-24 09:13:00,
2013-01-24 02:18:00,26.8,21.5,30.37,ESE,113,0.0,0.0,80,0.00,CLR,,0.00,WeatherDisplay:10.37,2013-01-24 09:18:00,
2013-01-24 02:23:00,26.7,21.7,30.37,ESE,113,0.0,0.0,81,0.00,CLR,,0.00,WeatherDisplay:10.37,2013-01-24 09:23:00,
2013-01-24 02:28:00,26.7,21.4,30.37,ESE,113,0.0,0.0,80,0.00,CLR,,0.00,WeatherDisplay:10.37,2013-01-24 09:28:00,
2013-01-24 02:33:00,26.7,21.7,30.37,NW,308,2.3,0.0,81,0.00,CLR,,0.00,WeatherDisplay:10.37,2013-01-24 09:33:00,
2013-01-24 02:38:00,26.7,21.4,30.36,NW,308,0.0,0.0,80,0.00,CLR,,0.00,WeatherDisplay:10.37,2013-01-24 09:38:00,
2013-01-24 02:43:00,26.7,21.7,30.36,West,266,0.0,0.0,81,0.00,CLR,,0.00,WeatherDisplay:10.37,2013-01-24 09:43:00,
2013-01-24 02:48:00,26.7,21.7,30.37,West,279,2.3,2.3,81,0.00,CLR,,0.00,WeatherDisplay:10.37,2013-01-24 09:48:00,
2013-01-24 02:53:00,26.9,21.0,30.37,NW,309,1.1,0.0,78,0.00,CLR,,0.00,WeatherDisplay:10.37,2013-01-24 09:53:00,
2013-01-24 02:58:00,27.0,21.1,30.37,NW,309,0.0,0.0,78,0.00,CLR,,0.00,WeatherDisplay:10.37,2013-01-24 09:58:00,
2013-01-24 03:03:00,27.1,21.2,30.37,NW,314,0.0,0.3,78,0.00,CLR,,0.00,WeatherDisplay:10.37,2013-01-24 10:03:00,
2013-01-24 03:08:00,27.2,21.2,30.37,NW,314,0.0,0.0,78,0.00,CLR,,0.00,WeatherDisplay:10.37,2013-01-24 10:08:00,
2013-01-24 03:13:00,27.4,21.4,30.36,NW,314,0.0,0.0,78,0.00,CLR,,0.00,WeatherDisplay:10.37,2013-01-24 10:13:00,
2013-01-24 03:18:00,27.5,21.5,30.37,NW,314,0.0,0.0,78,0.00,CLR,,0.00,WeatherDisplay:10.37,2013-01-24 10:18:00,
2013-01-24 03:23:00,27.6,21.6,30.37,NW,321,1.1,1.1,78,0.00,CLR,,0.00,WeatherDisplay:10.37,2013-01-24 10:23:00,
2013-01-24 03:28:00,27.8,22.1,30.38,West,269,1.1,0.0,79,0.00,CLR,,0.00,WeatherDisplay:10.37,2013-01-24 10:28:00,
2013-01-24 03:33:00,28.0,22.3,30.37,South,180,2.3,2.3,79,0.00,CLR,,0.00,WeatherDisplay:10.37,2013-01-24 10:33:00,
2013-01-24 03:38:00,28.1,22.4,30.37,South,189,1.1,1.1,79,0.00,CLR,,0.00,WeatherDisplay:10.37,2013-01-24 10:38:00,
2013-01-24 03:43:00,28.3,22.6,30.37,ESE,122,3.5,3.5,79,0.00,CLR,,0.00,WeatherDisplay:10.37,2013-01-24 10:43:00,
2013-01-24 03:48:00,28.7,23.0,30.37,SE,124,3.5,3.5,79,0.00,CLR,,0.00,WeatherDisplay:10.37,2013-01-24 10:48:00,
2013-01-24 03:53:00,28.9,23.2,30.37,South,188,3.5,3.5,79,0.00,CLR,,0.00,WeatherDisplay:10.37,2013-01-24 10:53:00,
2013-01-24 03:58:00,29.1,23.1,30.37,South,188,1.0,1.0,78,0.00,CLR,,0.00,WeatherDisplay:10.37,2013-01-24 10:58:00,
2013-01-24 04:03:00,29.5,23.2,30.37,WSW,250,0.0,0.0,77,0.00,CLR,,0.00,WeatherDisplay:10.37,2013-01-24 11:03:00,
2013-01-24 04:08:00,29.8,23.5,30.37,WSW,250,0.0,0.0,77,0.00,CLR,,0.00,WeatherDisplay:10.37,2013-01-24 11:08:00,
2013-01-24 04:13:00,30.0,24.0,30.37,WSW,250,0.0,0.0,78,0.00,CLR,,0.00,WeatherDisplay:10.37,2013-01-24 11:13:00,
2013-01-24 04:18:00,30.1,24.1,30.37,WSW,250,0.0,0.0,78,0.00,CLR,,0.00,WeatherDisplay:10.37,2013-01-24 11:18:00,
2013-01-24 04:23:00,30.2,24.2,30.37,SW,215,1.0,1.0,78,0.00,CLR,,0.00,WeatherDisplay:10.37,2013-01-24 11:23:00,
2013-01-24 04:28:00,30.2,24.2,30.36,SW,215,0.0,0.0,78,0.00,CLR,,0.00,WeatherDisplay:10.37,2013-01-24 11:28:00,
2013-01-24 04:33:00,30.3,24.3,30.36,SW,215,2.3,2.3,78,0.00,CLR,,0.00,WeatherDisplay:10.37,2013-01-24 11:33:00,
2013-01-24 04:38:00,30.4,24.4,30.36,SW,215,0.0,0.0,78,0.00,CLR,,0.00,WeatherDisplay:10.37,2013-01-24 11:38:00,
2013-01-24 04:43:00,30.5,24.5,30.36,SSW,194,0.0,2.0,78,0.00,CLR,CLR,0.00,WeatherDisplay:10.37,2013-01-24 11:43:00,
2013-01-24 04:48:00,30.8,24.7,30.35,West,277,1.1,0.0,78,0.00,CLR,,0.00,WeatherDisplay:10.37,2013-01-24 11:48:00,
2013-01-24 04:53:00,31.0,24.6,30.35,SSW,206,2.3,2.3,77,0.00,CLR,,0.00,WeatherDisplay:10.37,2013-01-24 11:53:00,
2013-01-24 04:58:00,31.1,24.8,30.34,SSW,204,0.0,3.0,77,0.00,CLR,CLR,0.00,WeatherDisplay:10.37,2013-01-24 11:58:00,
2013-01-24 05:03:00,31.3,25.2,30.35,SSW,195,1.1,0.0,78,0.00,CLR,,0.00,WeatherDisplay:10.37,2013-01-24 12:03:00,
2013-01-24 05:08:00,31.4,25.3,30.34,SSW,195,0.0,0.0,78,0.00,CLR,,0.00,WeatherDisplay:10.37,2013-01-24 12:08:00,
2013-01-24 05:13:00,31.5,25.7,30.34,South,184,1.0,2.0,79,0.00,CLR,CLR,0.00,WeatherDisplay:10.37,2013-01-24 12:13:00,
2013-01-24 05:18:00,31.6,25.2,30.34,NW,307,0.0,0.0,77,0.00,CLR,,0.00,WeatherDisplay:10.37,2013-01-24 12:18:00,
2013-01-24 05:23:00,31.7,25.3,30.34,NW,307,0.0,0.0,77,0.00,CLR,,0.00,WeatherDisplay:10.37,2013-01-24 12:23:00,
2013-01-24 05:28:00,31.7,25.3,30.34,SSW,206,3.5,3.5,77,0.00,CLR,,0.00,WeatherDisplay:10.37,2013-01-24 12:28:00,
2013-01-24 05:33:00,31.8,25.1,30.33,SSW,206,1.0,1.0,76,0.00,CLR,,0.00,WeatherDisplay:10.37,2013-01-24 12:33:00,
2013-01-24 05:38:00,31.9,25.5,30.34,SW,229,2.3,2.3,77,0.00,CLR,,0.00,WeatherDisplay:10.37,2013-01-24 12:38:00,
2013-01-24 05:43:00,32.0,25.6,30.33,SW,217,0.0,2.0,77,0.00,CLR,CLR,0.00,WeatherDisplay:10.37,2013-01-24 12:43:00,
2013-01-24 05:48:00,32.0,25.3,30.34,South,188,0.0,0.0,76,0.00,CLR,,0.00,WeatherDisplay:10.37,2013-01-24 12:48:00,
2013-01-24 05:53:00,32.1,26.0,30.33,SSE,157,2.3,2.3,78,0.00,CLR,,0.00,WeatherDisplay:10.37,2013-01-24 12:53:00,
2013-01-24 05:58:00,32.3,26.5,30.33,South,170,0.0,3.0,79,0.00,CLR,CLR,0.00,WeatherDisplay:10.37,2013-01-24 12:58:00,
2013-01-24 06:03:00,32.3,26.2,30.33,South,176,0.0,0.0,78,0.00,CLR,,0.00,WeatherDisplay:10.37,2013-01-24 13:03:00,
2013-01-24 06:08:00,32.3,26.5,30.33,SSW,204,0.0,0.0,79,0.00,CLR,,0.00,WeatherDisplay:10.37,2013-01-24 13:08:00,
2013-01-24 06:13:00,32.3,26.5,30.33,SSW,203,0.0,0.0,79,0.00,CLR,CLR,0.00,WeatherDisplay:10.37,2013-01-24 13:13:00,
2013-01-24 06:18:00,32.4,26.6,30.34,SSW,204,0.0,0.0,79,0.00,CLR,,0.00,WeatherDisplay:10.37,2013-01-24 13:18:00,
2013-01-24 06:23:00,32.4,26.9,30.34,SSW,204,0.0,0.0,80,0.00,CLR,,0.00,WeatherDisplay:10.37,2013-01-24 13:23:00,
2013-01-24 06:28:00,32.4,26.9,30.34,SSW,204,0.0,0.0,80,0.00,CLR,,0.00,WeatherDisplay:10.37,2013-01-24 13:28:00,
2013-01-24 06:33:00,32.4,26.9,30.33,SSW,204,0.0,0.0,80,0.00,CLR,,0.00,WeatherDisplay:10.37,2013-01-24 13:33:00,
2013-01-24 06:38:00,32.4,26.6,30.33,SSW,204,0.0,0.0,79,0.00,CLR,,0.00,WeatherDisplay:10.37,2013-01-24 13:38:00,
2013-01-24 06:43:00,32.4,26.9,30.33,SSW,204,0.0,1.0,80,0.00,CLR,CLR,0.00,WeatherDisplay:10.37,2013-01-24 13:43:00,
2013-01-24 06:48:00,32.4,26.6,30.33,SSW,204,0.0,0.0,79,0.00,CLR,,0.00,WeatherDisplay:10.37,2013-01-24 13:48:00,
2013-01-24 06:53:00,32.4,26.9,30.34,SSW,204,0.0,0.0,80,0.00,CLR,,0.00,WeatherDisplay:10.37,2013-01-24 13:53:00,
2013-01-24 06:58:00,32.4,26.6,30.34,SSW,204,0.0,0.0,79,0.00,CLR,CLR,0.00,WeatherDisplay:10.37,2013-01-24 13:58:00,
2013-01-24 07:03:00,32.5,27.0,30.33,SSW,204,0.0,0.0,80,0.00,CLR,,0.00,WeatherDisplay:10.37,2013-01-24 14:03:00,
2013-01-24 07:08:00,32.5,27.0,30.33,SSW,204,0.0,0.0,80,0.00,CLR,,0.00,WeatherDisplay:10.37,2013-01-24 14:08:00,
2013-01-24 07:13:00,32.5,27.3,30.34,SSW,204,0.0,0.0,81,0.00,CLR,CLR,0.00,WeatherDisplay:10.37,2013-01-24 14:13:00,
2013-01-24 07:18:00,32.6,27.4,30.34,SSW,204,0.0,0.0,81,0.00,CLR,,0.00,WeatherDisplay:10.37,2013-01-24 14:18:00,
2013-01-24 07:23:00,32.6,27.7,30.34,SSW,204,0.0,0.0,82,0.00,CLR,,0.00,WeatherDisplay:10.37,2013-01-24 14:23:00,
2013-01-24 07:28:00,32.6,27.7,30.34,SSW,204,0.0,0.1,82,0.00,CLR,,0.00,WeatherDisplay:10.37,2013-01-24 14:28:00,
2013-01-24 07:33:00,32.6,27.7,30.34,SSW,204,0.0,0.0,82,0.00,CLR,,0.00,WeatherDisplay:10.37,2013-01-24 14:33:00,
2013-01-24 07:38:00,32.7,27.8,30.34,SSW,204,0.0,0.0,82,0.00,CLR,,0.00,WeatherDisplay:10.37,2013-01-24 14:38:00,
2013-01-24 07:43:00,32.8,28.5,30.34,SSW,204,0.0,0.0,84,0.00,CLR,CLR,0.00,WeatherDisplay:10.37,2013-01-24 14:43:00,
2013-01-24 07:48:00,32.8,28.5,30.34,SSW,204,0.0,0.0,84,0.00,CLR,,0.00,WeatherDisplay:10.37,2013-01-24 14:48:00,
2013-01-24 07:53:00,32.8,28.8,30.33,SSW,204,0.0,0.0,85,0.00,CLR,,0.00,WeatherDisplay:10.37,2013-01-24 14:53:00,
2013-01-24 07:58:00,32.7,29.0,30.33,SSW,204,0.0,0.0,86,0.00,CLR,,0.00,WeatherDisplay:10.37,2013-01-24 14:58:00,
2013-01-24 08:03:00,32.7,29.3,30.33,SSW,204,0.0,0.0,87,0.00,CLR,,0.00,WeatherDisplay:10.37,2013-01-24 15:03:00,
2013-01-24 08:08:00,32.6,29.4,30.33,SSW,204,0.0,0.0,88,0.00,CLR,,0.00,WeatherDisplay:10.37,2013-01-24 15:08:00,
2013-01-24 08:13:00,32.6,29.7,30.33,SSW,204,0.0,0.0,89,0.00,CLR,CLR,0.00,WeatherDisplay:10.37,2013-01-24 15:13:00,
2013-01-24 08:18:00,32.5,29.9,30.33,SSW,204,0.0,0.0,90,0.00,CLR,,0.00,WeatherDisplay:10.37,2013-01-24 15:18:00,
2013-01-24 08:23:00,32.6,30.0,30.33,SSW,204,0.0,0.0,90,0.00,CLR,,0.00,WeatherDisplay:10.37,2013-01-24 15:23:00,
2013-01-24 08:28:00,32.6,30.0,30.33,SSW,204,0.0,0.0,90,0.00,CLR,,0.00,WeatherDisplay:10.37,2013-01-24 15:28:00,
2013-01-24 08:33:00,32.6,30.3,30.33,SSW,204,0.0,0.0,91,0.00,CLR,,0.00,WeatherDisplay:10.37,2013-01-24 15:33:00,
2013-01-24 08:38:00,32.6,30.3,30.32,SSW,204,0.0,0.0,91,0.00,CLR,,0.00,WeatherDisplay:10.37,2013-01-24 15:38:00,
2013-01-24 08:43:00,32.7,30.6,30.32,SSW,204,0.0,0.0,92,0.00,CLR,CLR,0.00,WeatherDisplay:10.37,2013-01-24 15:43:00,
2013-01-24 08:48:00,32.8,30.7,30.32,SSW,204,0.0,0.0,92,0.00,CLR,,0.00,WeatherDisplay:10.37,2013-01-24 15:48:00,
2013-01-24 08:53:00,32.8,30.7,30.32,SSW,204,0.0,0.0,92,0.00,CLR,,0.00,WeatherDisplay:10.37,2013-01-24 15:53:00,
2013-01-24 08:58:00,32.9,30.8,30.32,SSW,204,0.0,0.0,92,0.00,CLR,CLR,0.00,WeatherDisplay:10.37,2013-01-24 15:58:00,
2013-01-24 09:03:00,33.0,31.2,30.32,SSW,204,0.0,0.0,93,0.00,CLR,,0.00,WeatherDisplay:10.37,2013-01-24 16:03:00,
2013-01-24 09:08:00,33.1,31.3,30.32,SSW,204,0.0,0.0,93,0.00,CLR,,0.00,WeatherDisplay:10.37,2013-01-24 16:08:00,
2013-01-24 09:13:00,33.2,31.4,30.32,SSW,204,0.0,0.0,93,0.00,CLR,CLR,0.00,WeatherDisplay:10.37,2013-01-24 16:13:00,
2013-01-24 09:18:00,33.3,31.5,30.32,SSW,204,0.0,0.0,93,0.00,CLR,,0.00,WeatherDisplay:10.37,2013-01-24 16:18:00,
2013-01-24 09:23:00,33.4,31.6,30.32,SSW,204,0.0,0.0,93,0.00,CLR,,0.00,WeatherDisplay:10.37,2013-01-24 16:23:00,
2013-01-24 09:28:00,33.5,31.7,30.32,SSW,204,0.0,0.0,93,0.00,CLR,,0.00,WeatherDisplay:10.37,2013-01-24 16:28:00,
2013-01-24 09:33:00,33.6,31.8,30.32,SSW,204,0.0,0.0,93,0.00,CLR,,0.00,WeatherDisplay:10.37,2013-01-24 16:33:00,
2013-01-24 09:38:00,33.7,31.9,30.32,SSW,204,0.0,0.0,93,0.00,CLR,,0.00,WeatherDisplay:10.37,2013-01-24 16:38:00,
2013-01-24 09:43:00,33.8,32.0,30.32,SSW,204,0.0,0.0,93,0.00,CLR,,0.00,WeatherDisplay:10.37,2013-01-24 16:43:00,
2013-01-24 09:48:00,33.8,32.0,30.32,SSW,204,0.0,0.0,93,0.00,CLR,,0.00,WeatherDisplay:10.37,2013-01-24 16:48:00,
2013-01-24 09:53:00,33.9,32.1,30.32,SSW,204,0.0,0.0,93,0.00,CLR,,0.00,WeatherDisplay:10.37,2013-01-24 16:53:00,
2013-01-24 09:58:00,34.0,32.2,30.32,SSW,204,0.0,0.0,93,0.00,CLR,CLR,0.00,WeatherDisplay:10.37,2013-01-24 16:58:00,
2013-01-24 10:03:00,34.0,31.9,30.33,SSW,204,0.0,0.0,92,0.00,CLR,,0.00,WeatherDisplay:10.37,2013-01-24 17:03:00,
2013-01-24 10:08:00,34.0,31.9,30.33,West,269,1.1,0.0,92,0.00,CLR,,0.00,WeatherDisplay:10.37,2013-01-24 17:08:00,
2013-01-24 10:13:00,33.9,32.1,30.33,West,266,0.0,1.0,93,0.00,CLR,CLR,0.00,WeatherDisplay:10.37,2013-01-24 17:13:00,
2013-01-24 10:18:00,33.9,32.1,30.33,West,269,0.0,0.0,93,0.00,CLR,,0.00,WeatherDisplay:10.37,2013-01-24 17:18:00,
2013-01-24 10:23:00,33.9,32.1,30.33,West,269,0.0,0.0,93,0.00,CLR,,0.00,WeatherDisplay:10.37,2013-01-24 17:23:00,
2013-01-24 10:28:00,34.0,32.2,30.33,West,269,0.0,0.0,93,0.00,CLR,,0.00,WeatherDisplay:10.37,2013-01-24 17:28:00,
2013-01-24 10:33:00,34.0,32.2,30.33,West,269,0.0,0.0,93,0.00,CLR,,0.00,WeatherDisplay:10.37,2013-01-24 17:33:00,
2013-01-24 10:38:00,34.2,32.4,30.33,West,269,0.0,0.0,93,0.00,CLR,,0.00,WeatherDisplay:10.37,2013-01-24 17:38:00,
2013-01-24 10:43:00,34.3,32.5,30.32,West,269,0.0,0.0,93,0.00,CLR,CLR,0.00,WeatherDisplay:10.37,2013-01-24 17:43:00,
2013-01-24 10:48:00,34.4,32.6,30.32,West,269,0.0,0.0,93,0.00,CLR,,0.00,WeatherDisplay:10.37,2013-01-24 17:48:00,
2013-01-24 10:53:00,34.5,32.7,30.32,West,269,0.0,0.0,93,0.00,CLR,,0.00,WeatherDisplay:10.37,2013-01-24 17:53:00,
2013-01-24 10:58:00,34.6,32.8,30.32,West,269,0.0,1.0,93,0.00,CLR,CLR,0.00,WeatherDisplay:10.37,2013-01-24 17:58:00,
2013-01-24 11:03:00,34.7,32.9,30.32,West,269,0.0,0.0,93,0.00,CLR,,0.00,WeatherDisplay:10.37,2013-01-24 18:03:00,
2013-01-24 11:08:00,34.7,32.6,30.32,West,269,0.0,0.0,92,0.00,CLR,,0.00,WeatherDisplay:10.37,2013-01-24 18:08:00,
2013-01-24 11:13:00,34.7,32.6,30.32,West,269,0.0,1.0,92,0.00,CLR,CLR,0.00,WeatherDisplay:10.37,2013-01-24 18:13:00,
2013-01-24 11:18:00,34.8,32.7,30.32,West,271,0.0,0.0,92,0.00,CLR,,0.00,WeatherDisplay:10.37,2013-01-24 18:18:00,
2013-01-24 11:23:00,34.9,33.1,30.31,West,271,0.0,0.0,93,0.00,CLR,,0.00,WeatherDisplay:10.37,2013-01-24 18:23:00,
2013-01-24 11:28:00,35.0,32.9,30.32,West,271,0.0,0.0,92,0.01,RA,,0.01,WeatherDisplay:10.37,2013-01-24 18:28:00,
2013-01-24 11:33:00,35.0,32.9,30.32,West,271,0.0,0.0,92,0.01,RA,,0.01,WeatherDisplay:10.37,2013-01-24 18:33:00,
2013-01-24 11:38:00,35.0,32.9,30.32,West,271,0.0,0.0,92,0.01,,,0.01,WeatherDisplay:10.37,2013-01-24 18:38:00,
2013-01-24 11:43:00,35.0,32.9,30.31,West,271,0.0,0.0,92,0.00,CLR,CLR,0.01,WeatherDisplay:10.37,2013-01-24 18:43:00,
2013-01-24 11:48:00,35.0,32.9,30.31,West,271,0.0,0.0,92,0.01,CLR,,0.01,WeatherDisplay:10.37,2013-01-24 18:48:00,
2013-01-24 11:53:00,35.1,33.0,30.31,West,271,0.0,0.0,92,0.02,RA,,0.02,WeatherDisplay:10.37,2013-01-24 18:53:00,
2013-01-24 11:58:00,35.1,33.0,30.31,West,271,1.1,0.0,92,0.02,RA,,0.02,WeatherDisplay:10.37,2013-01-24 18:58:00,
2013-01-24 12:03:00,35.2,33.4,30.31,West,271,0.0,0.0,93,0.02,CLR,,0.02,WeatherDisplay:10.37,2013-01-24 19:03:00,
2013-01-24 12:08:00,35.3,33.2,30.31,West,271,0.0,0.0,92,0.02,CLR,,0.02,WeatherDisplay:10.37,2013-01-24 19:08:00,
2013-01-24 12:13:00,35.5,33.7,30.31,West,271,0.0,0.0,93,0.02,CLR,,0.02,WeatherDisplay:10.37,2013-01-24 19:13:00,
2013-01-24 12:18:00,35.6,33.8,30.31,West,271,0.0,0.0,93,0.03,RA,,0.03,WeatherDisplay:10.37,2013-01-24 19:18:00,
2013-01-24 12:23:00,35.8,34.0,30.30,West,271,0.0,0.0,93,0.04,RA,,0.04,WeatherDisplay:10.37,2013-01-24 19:23:00,
2013-01-24 12:28:00,35.9,33.8,30.30,West,271,0.0,0.0,92,0.03,RA,,0.04,WeatherDisplay:10.37,2013-01-24 19:28:00,
2013-01-24 12:33:00,36.0,33.9,30.30,West,272,0.0,0.0,92,0.04,RA,,0.05,WeatherDisplay:10.37,2013-01-24 19:33:00,
2013-01-24 12:38:00,36.2,34.4,30.29,West,272,0.0,0.0,93,0.05,RA,,0.06,WeatherDisplay:10.37,2013-01-24 19:38:00,
2013-01-24 12:43:00,36.4,34.6,30.29,West,272,0.0,0.0,93,0.06,RA,,0.07,WeatherDisplay:10.37,2013-01-24 19:43:00,
2013-01-24 12:48:00,36.5,34.4,30.29,West,272,1.1,0.0,92,0.07,RA,,0.08,WeatherDisplay:10.37,2013-01-24 19:48:00,
2013-01-24 12:53:00,36.7,34.9,30.29,West,267,0.0,0.0,93,0.07,RA,,0.09,WeatherDisplay:10.37,2013-01-24 19:53:00,
2013-01-24 12:58:00,36.9,34.8,30.28,West,267,0.0,0.0,92,0.08,RA,,0.10,WeatherDisplay:10.37,2013-01-24 19:58:00,
2013-01-24 13:03:00,37.1,35.0,30.28,West,267,0.0,0.0,92,0.08,RA,,0.10,WeatherDisplay:10.37,2013-01-24 20:03:00,
2013-01-24 13:08:00,37.4,35.0,30.28,West,267,0.0,0.0,91,0.08,CLR,,0.11,WeatherDisplay:10.37,2013-01-24 20:08:00,
2013-01-24 13:13:00,37.6,35.2,30.27,West,267,0.0,0.0,91,0.09,RA,,0.11,WeatherDisplay:10.37,2013-01-24 20:13:00,
2013-01-24 13:18:00,37.9,35.5,30.27,West,267,0.0,0.0,91,0.09,RA,,0.12,WeatherDisplay:10.37,2013-01-24 20:18:00,
2013-01-24 13:23:00,38.1,35.4,30.27,West,267,1.1,0.0,90,0.08,RA,,0.12,WeatherDisplay:10.37,2013-01-24 20:23:00,
2013-01-24 13:28:00,38.3,35.6,30.27,West,271,0.0,1.0,90,0.01,RA,RA,0.13,WeatherDisplay:10.37,2013-01-24 20:28:00,
2013-01-24 13:33:00,38.4,35.4,30.27,NW,304,1.1,1.1,89,0.08,RA,,0.13,WeatherDisplay:10.37,2013-01-24 20:33:00,
2013-01-24 13:38:00,38.2,35.0,30.27,NW,304,2.3,2.3,88,0.08,RA,,0.14,WeatherDisplay:10.37,2013-01-24 20:38:00,
2013-01-24 13:43:00,38.0,35.0,30.27,North,355,1.1,0.0,89,0.07,RA,,0.14,WeatherDisplay:10.37,2013-01-24 20:43:00,
2013-01-24 13:48:00,37.8,34.8,30.27,North,355,1.1,0.0,89,0.07,RA,,0.15,WeatherDisplay:10.37,2013-01-24 20:48:00,
2013-01-24 13:53:00,37.7,35.0,30.27,North,355,0.0,0.0,90,0.06,RA,,0.15,WeatherDisplay:10.37,2013-01-24 20:53:00,
2013-01-24 13:58:00,37.8,35.1,30.26,North,11,1.1,1.1,90,0.06,RA,,0.16,WeatherDisplay:10.37,2013-01-24 20:58:00,
2013-01-24 14:03:00,37.7,34.8,30.26,NNE,22,0.0,0.0,89,0.06,RA,,0.16,WeatherDisplay:10.37,2013-01-24 21:03:00,
2013-01-24 14:08:00,37.5,34.8,30.26,NNE,22,0.0,0.0,90,0.05,CLR,,0.16,WeatherDisplay:10.37,2013-01-24 21:08:00,
2013-01-24 14:13:00,37.6,34.9,30.26,NNE,23,0.0,0.0,90,0.06,RA,,0.17,WeatherDisplay:10.37,2013-01-24 21:13:00,
2013-01-24 14:18:00,37.6,34.9,30.26,NNE,24,1.1,1.1,90,0.05,RA,,0.17,WeatherDisplay:10.37,2013-01-24 21:18:00,
2013-01-24 14:23:00,37.5,34.8,30.26,NNE,24,0.0,0.0,90,0.06,RA,,0.18,WeatherDisplay:10.37,2013-01-24 21:23:00,
2013-01-24 14:28:00,37.5,34.8,30.27,NNE,24,0.0,0.0,90,0.05,RA,,0.18,WeatherDisplay:10.37,2013-01-24 21:28:00,
2013-01-24 14:33:00,37.5,35.1,30.26,NNE,24,0.0,0.0,91,0.05,,,0.18,WeatherDisplay:10.37,2013-01-24 21:33:00,
2013-01-24 14:38:00,37.5,35.1,30.27,NNE,24,0.0,0.0,91,0.04,CLR,,0.18,WeatherDisplay:10.37,2013-01-24 21:38:00,
2013-01-24 14:43:00,37.5,35.1,30.26,NNE,24,0.0,0.0,91,0.04,CLR,,0.18,WeatherDisplay:10.37,2013-01-24 21:43:00,
2013-01-24 14:48:00,37.5,35.1,30.26,NNE,24,0.0,0.0,91,0.04,RA,,0.19,WeatherDisplay:10.37,2013-01-24 21:48:00,
2013-01-24 14:53:00,37.5,35.1,30.27,NNE,24,0.0,0.0,91,0.04,RA,,0.19,WeatherDisplay:10.37,2013-01-24 21:53:00,
2013-01-24 14:58:00,37.5,35.1,30.27,NNE,24,0.0,0.0,91,0.04,RA,,0.20,WeatherDisplay:10.37,2013-01-24 21:58:00,
2013-01-24 15:03:00,37.5,35.1,30.27,NNE,24,0.0,0.0,91,0.04,RA,,0.20,WeatherDisplay:10.37,2013-01-24 22:03:00,
2013-01-24 15:08:00,37.5,35.1,30.27,NNE,24,0.0,0.0,91,0.04,,,0.20,WeatherDisplay:10.37,2013-01-24 22:08:00,
2013-01-24 15:13:00,37.5,35.1,30.27,NNE,24,0.0,0.0,91,0.03,CLR,,0.20,WeatherDisplay:10.37,2013-01-24 22:13:00,
2013-01-24 15:18:00,37.4,35.0,30.28,NNE,24,0.0,0.0,91,0.03,CLR,,0.20,WeatherDisplay:10.37,2013-01-24 22:18:00,
2013-01-24 15:23:00,37.4,35.0,30.28,NNE,24,0.0,0.0,91,0.02,CLR,,0.20,WeatherDisplay:10.37,2013-01-24 22:23:00,
2013-01-24 15:28:00,37.4,35.0,30.29,NNE,24,0.0,0.0,91,0.03,RA,,0.21,WeatherDisplay:10.37,2013-01-24 22:28:00,
2013-01-24 15:33:00,37.3,34.6,30.28,NW,320,1.1,0.0,90,0.03,RA,,0.21,WeatherDisplay:10.37,2013-01-24 22:33:00,
2013-01-24 15:38:00,37.3,34.6,30.29,NW,320,1.1,1.1,90,0.03,CLR,,0.21,WeatherDisplay:10.37,2013-01-24 22:38:00,
2013-01-24 15:43:00,37.1,34.4,30.29,NW,320,1.1,0.0,90,0.04,RA,,0.22,WeatherDisplay:10.37,2013-01-24 22:43:00,
2013-01-24 15:48:00,37.1,34.4,30.30,NW,320,0.0,0.0,90,0.03,RA,,0.22,WeatherDisplay:10.37,2013-01-24 22:48:00,
2013-01-24 15:53:00,37.0,34.6,30.30,NW,320,0.0,0.0,91,0.03,CLR,,0.22,WeatherDisplay:10.37,2013-01-24 22:53:00,
2013-01-24 15:58:00,37.0,34.6,30.30,NW,320,0.0,0.0,91,0.02,CLR,,0.22,WeatherDisplay:10.37,2013-01-24 22:58:00,
2013-01-24 16:03:00,37.0,34.6,30.30,NW,320,0.0,0.0,91,0.02,CLR,,0.22,WeatherDisplay:10.37,2013-01-24 23:03:00,
2013-01-24 16:08:00,37.0,34.6,30.30,NW,320,1.1,1.1,91,0.03,RA,,0.23,WeatherDisplay:10.37,2013-01-24 23:08:00,
2013-01-24 16:13:00,36.8,34.4,30.30,NW,313,2.3,2.3,91,0.03,RA,,0.23,WeatherDisplay:10.37,2013-01-24 23:13:00,
2013-01-24 16:18:00,36.7,34.3,30.30,NW,311,1.1,1.1,91,0.03,,,0.23,WeatherDisplay:10.37,2013-01-24 23:18:00,
2013-01-24 16:23:00,36.6,34.2,30.31,NW,311,1.1,1.1,91,0.03,CLR,,0.23,WeatherDisplay:10.37,2013-01-24 23:23:00,
2013-01-24 16:28:00,36.5,34.1,30.31,NW,311,0.0,0.0,91,0.03,RA,,0.24,WeatherDisplay:10.37,2013-01-24 23:28:00,
2013-01-24 16:33:00,36.4,34.0,30.31,NW,311,0.0,0.0,91,0.03,RA,,0.24,WeatherDisplay:10.37,2013-01-24 23:33:00,
2013-01-24 16:38:00,36.3,33.9,30.31,NW,311,0.0,0.0,91,0.03,CLR,,0.24,WeatherDisplay:10.37,2013-01-24 23:38:00,
2013-01-24 16:43:00,36.2,34.1,30.32,NW,311,0.0,0.0,92,0.02,CLR,,0.24,WeatherDisplay:10.37,2013-01-24 23:43:00,
2013-01-24 16:48:00,36.1,34.0,30.32,NW,311,3.5,3.5,92,0.02,CLR,,0.24,WeatherDisplay:10.37,2013-01-24 23:48:00,
2013-01-24 16:53:00,36.1,34.0,30.32,NW,311,0.0,0.0,92,0.02,CLR,,0.24,WeatherDisplay:10.37,2013-01-24 23:53:00,
2013-01-24 16:58:00,36.0,33.9,30.32,NW,311,0.0,0.0,92,0.02,CLR,,0.24,WeatherDisplay:10.37,2013-01-24 23:58:00,
2013-01-24 17:03:00,35.9,33.8,30.32,NW,311,0.0,0.0,92,0.02,CLR,,0.24,WeatherDisplay:10.37,2013-01-25 00:03:00,
2013-01-24 17:08:00,35.9,33.8,30.32,NW,311,0.0,0.0,92,0.02,RA,,0.25,WeatherDisplay:10.37,2013-01-25 00:08:00,
2013-01-24 17:13:00,35.8,33.7,30.32,NW,311,0.0,0.0,92,0.02,RA,,0.25,WeatherDisplay:10.37,2013-01-25 00:13:00,
2013-01-24 17:18:00,35.7,33.6,30.33,NW,311,0.0,0.0,92,0.02,CLR,,0.25,WeatherDisplay:10.37,2013-01-25 00:18:00,
2013-01-24 17:23:00,35.7,33.9,30.32,NW,311,0.0,0.0,93,0.02,CLR,,0.25,WeatherDisplay:10.37,2013-01-25 00:23:00,
2013-01-24 17:28:00,35.5,33.7,30.33,NW,311,0.0,0.0,93,0.01,CLR,,0.25,WeatherDisplay:10.37,2013-01-25 00:28:00,
2013-01-24 17:33:00,35.4,33.6,30.33,NW,311,0.0,0.0,93,0.01,CLR,,0.25,WeatherDisplay:10.37,2013-01-25 00:33:00,
2013-01-24 17:38:00,35.4,33.6,30.33,NW,311,0.0,0.0,93,0.02,RA,,0.26,WeatherDisplay:10.37,2013-01-25 00:38:00,
2013-01-24 17:43:00,35.3,33.5,30.33,NW,311,0.0,0.0,93,0.02,RA,,0.26,WeatherDisplay:10.37,2013-01-25 00:43:00,
2013-01-24 17:48:00,35.2,33.4,30.33,NW,311,0.0,0.0,93,0.02,,,0.26,WeatherDisplay:10.37,2013-01-25 00:48:00,
2013-01-24 17:53:00,35.1,33.3,30.33,NW,311,0.0,0.0,93,0.02,CLR,,0.26,WeatherDisplay:10.37,2013-01-25 00:53:00,
2013-01-24 17:58:00,35.0,33.4,30.33,NW,311,0.0,0.0,94,0.02,CLR,,0.26,WeatherDisplay:10.37,2013-01-25 00:58:00,
2013-01-24 18:03:00,34.9,33.3,30.33,NW,311,0.0,0.0,94,0.02,CLR,,0.26,WeatherDisplay:10.37,2013-01-25 01:03:00,
2013-01-24 18:08:00,34.8,33.2,30.34,NW,311,0.0,0.0,94,0.01,CLR,,0.26,WeatherDisplay:10.37,2013-01-25 01:08:00,
2013-01-24 18:13:00,34.8,33.2,30.33,NW,311,0.0,0.0,94,0.01,CLR,,0.26,WeatherDisplay:10.37,2013-01-25 01:13:00,
2013-01-24 18:18:00,34.7,33.2,30.34,NW,311,0.0,0.0,94,0.01,CLR,,0.26,WeatherDisplay:10.37,2013-01-25 01:18:00,
2013-01-24 18:23:00,34.7,33.2,30.34,NW,311,0.0,0.0,94,0.01,CLR,,0.26,WeatherDisplay:10.37,2013-01-25 01:23:00,
2013-01-24 18:28:00,34.6,33.1,30.35,NW,311,0.0,0.0,94,0.01,CLR,,0.26,WeatherDisplay:10.37,2013-01-25 01:28:00,
2013-01-24 18:33:00,34.7,33.2,30.35,NW,311,0.0,0.0,94,0.01,CLR,,0.26,WeatherDisplay:10.37,2013-01-25 01:33:00,
2013-01-24 18:38:00,34.6,33.1,30.35,NW,311,0.0,0.0,94,0.00,CLR,,0.26,WeatherDisplay:10.37,2013-01-25 01:38:00,
2013-01-24 18:43:00,34.6,33.1,30.35,NW,311,0.0,0.0,94,0.00,CLR,,0.26,WeatherDisplay:10.37,2013-01-25 01:43:00,
2013-01-24 18:48:00,34.6,33.1,30.34,NW,311,0.0,0.0,94,0.00,CLR,,0.26,WeatherDisplay:10.37,2013-01-25 01:48:00,
2013-01-24 18:53:00,34.5,33.0,30.35,NW,311,0.0,0.0,94,0.00,CLR,,0.26,WeatherDisplay:10.37,2013-01-25 01:53:00,
2013-01-24 18:58:00,34.5,33.0,30.35,NW,311,0.0,0.0,94,0.00,CLR,,0.26,WeatherDisplay:10.37,2013-01-25 01:58:00,
2013-01-24 19:03:00,34.4,32.9,30.35,NW,311,0.0,0.0,94,0.00,CLR,,0.26,WeatherDisplay:10.37,2013-01-25 02:03:00,
2013-01-24 19:08:00,34.4,33.1,30.35,NW,311,0.0,0.0,95,0.00,CLR,,0.26,WeatherDisplay:10.37,2013-01-25 02:08:00,
2013-01-24 19:13:00,34.4,33.1,30.35,NW,311,0.0,0.0,95,0.00,CLR,,0.26,WeatherDisplay:10.37,2013-01-25 02:13:00,
2013-01-24 19:18:00,34.4,33.1,30.35,West,261,0.0,0.0,95,0.00,CLR,,0.26,WeatherDisplay:10.37,2013-01-25 02:18:00,
2013-01-24 19:23:00,34.4,33.1,30.35,West,261,0.0,0.0,95,0.00,CLR,,0.26,WeatherDisplay:10.37,2013-01-25 02:23:00,
2013-01-24 19:28:00,34.4,33.1,30.35,West,261,0.0,0.0,95,0.01,RA,,0.27,WeatherDisplay:10.37,2013-01-25 02:28:00,
2013-01-24 19:33:00,34.4,33.1,30.35,West,261,0.0,0.0,95,0.01,RA,,0.27,WeatherDisplay:10.37,2013-01-25 02:33:00,
2013-01-24 19:38:00,34.4,33.1,30.35,West,261,0.0,0.0,95,0.01,CLR,,0.27,WeatherDisplay:10.37,2013-01-25 02:38:00,
2013-01-24 19:43:00,34.2,32.9,30.35,West,261,0.0,0.0,95,0.01,CLR,,0.27,WeatherDisplay:10.37,2013-01-25 02:43:00,
2013-01-24 19:48:00,34.2,32.9,30.35,West,261,0.0,0.0,95,0.01,CLR,,0.27,WeatherDisplay:10.37,2013-01-25 02:48:00,
2013-01-24 19:53:00,34.2,32.9,30.35,West,261,0.0,0.0,95,0.01,CLR,,0.27,WeatherDisplay:10.37,2013-01-25 02:53:00,
2013-01-24 19:58:00,34.2,32.9,30.35,West,261,0.0,0.0,95,0.01,CLR,,0.27,WeatherDisplay:10.37,2013-01-25 02:58:00,
2013-01-24 20:03:00,34.1,32.8,30.35,West,261,0.0,0.0,95,0.01,CLR,,0.27,WeatherDisplay:10.37,2013-01-25 03:03:00,
2013-01-24 20:08:00,34.1,32.8,30.35,West,261,0.0,0.0,95,0.01,CLR,,0.27,WeatherDisplay:10.37,2013-01-25 03:08:00,
2013-01-24 20:13:00,34.1,32.8,30.35,West,261,0.0,0.0,95,0.01,CLR,,0.27,WeatherDisplay:10.37,2013-01-25 03:13:00,
2013-01-24 20:18:00,34.1,32.8,30.35,West,261,0.0,0.0,95,0.01,CLR,,0.27,WeatherDisplay:10.37,2013-01-25 03:18:00,
2013-01-24 20:23:00,34.1,32.8,30.35,West,261,0.0,0.0,95,0.01,CLR,,0.27,WeatherDisplay:10.37,2013-01-25 03:23:00,
2013-01-24 20:28:00,34.1,32.8,30.35,West,261,0.0,0.0,95,0.00,CLR,,0.27,WeatherDisplay:10.37,2013-01-25 03:28:00,
2013-01-24 20:33:00,34.1,32.8,30.35,West,261,0.0,0.0,95,0.01,RA,,0.28,WeatherDisplay:10.37,2013-01-25 03:33:00,
2013-01-24 20:38:00,34.1,32.8,30.35,West,261,0.0,0.0,95,0.01,RA,,0.28,WeatherDisplay:10.37,2013-01-25 03:38:00,
2013-01-24 20:43:00,34.0,32.7,30.34,West,261,0.0,0.0,95,0.01,CLR,,0.28,WeatherDisplay:10.37,2013-01-25 03:43:00,
2013-01-24 20:48:00,34.0,32.7,30.34,West,261,0.0,0.0,95,0.01,CLR,,0.28,WeatherDisplay:10.37,2013-01-25 03:48:00,
2013-01-24 20:53:00,34.0,32.7,30.34,West,261,0.0,0.0,95,0.01,CLR,,0.28,WeatherDisplay:10.37,2013-01-25 03:53:00,
2013-01-24 20:58:00,34.1,33.1,30.33,West,261,0.0,0.0,96,0.01,CLR,,0.28,WeatherDisplay:10.37,2013-01-25 03:58:00,
2013-01-24 21:03:00,34.0,33.0,30.33,West,261,0.0,0.0,96,0.01,CLR,,0.28,WeatherDisplay:10.37,2013-01-25 04:03:00,
2013-01-24 21:08:00,33.9,32.6,30.34,West,261,0.0,0.0,95,0.01,CLR,,0.28,WeatherDisplay:10.37,2013-01-25 04:08:00,
2013-01-24 21:13:00,33.9,32.6,30.34,West,261,0.0,0.0,95,0.01,CLR,,0.28,WeatherDisplay:10.37,2013-01-25 04:13:00,
2013-01-24 21:18:00,33.8,32.5,30.34,West,261,0.0,0.0,95,0.01,CLR,,0.28,WeatherDisplay:10.37,2013-01-25 04:18:00,
2013-01-24 21:23:00,33.8,32.8,30.34,West,261,0.0,0.0,96,0.01,CLR,,0.28,WeatherDisplay:10.37,2013-01-25 04:23:00,
2013-01-24 21:28:00,33.7,32.4,30.34,West,261,0.0,0.0,95,0.01,CLR,,0.28,WeatherDisplay:10.37,2013-01-25 04:28:00,
2013-01-24 21:33:00,33.7,32.4,30.34,West,261,0.0,0.0,95,0.00,CLR,,0.28,WeatherDisplay:10.37,2013-01-25 04:33:00,
2013-01-24 21:38:00,33.6,32.3,30.34,West,261,0.0,0.0,95,0.00,CLR,,0.28,WeatherDisplay:10.37,2013-01-25 04:38:00,
2013-01-24 21:43:00,33.6,32.3,30.34,West,261,0.0,0.0,95,0.00,CLR,,0.28,WeatherDisplay:10.37,2013-01-25 04:43:00,
2013-01-24 21:48:00,33.5,32.2,30.34,West,261,0.0,0.0,95,0.00,CLR,,0.28,WeatherDisplay:10.37,2013-01-25 04:48:00,
2013-01-24 21:53:00,33.5,32.2,30.34,West,261,0.0,0.0,95,0.00,CLR,,0.28,WeatherDisplay:10.37,2013-01-25 04:53:00,
2013-01-24 21:58:00,33.5,32.5,30.35,West,261,1.1,0.0,96,0.00,CLR,,0.28,WeatherDisplay:10.37,2013-01-25 04:58:00,
2013-01-24 22:01:00,33.5,32.5,30.35,West,261,0.0,0.0,96,0.00,CLR,,0.28,WeatherDisplay:10.37,2013-01-25 05:01:00,
2013-01-24 22:03:00,33.5,32.5,30.35,West,261,0.0,0.0,96,0.00,CLR,,0.28,WeatherDisplay:10.37,2013-01-25 05:03:00,
2013-01-24 22:08:00,33.5,32.5,30.35,West,261,0.0,0.0,96,0.00,CLR,,0.28,WeatherDisplay:10.37,2013-01-25 05:08:00,
2013-01-24 22:13:00,33.5,32.5,30.35,West,261,0.0,0.0,96,0.00,CLR,,0.28,WeatherDisplay:10.37,2013-01-25 05:13:00,
2013-01-24 22:18:00,33.5,32.5,30.35,West,261,0.0,0.0,96,0.00,CLR,,0.28,WeatherDisplay:10.37,2013-01-25 05:18:00,
2013-01-24 22:23:00,33.5,32.5,30.35,West,261,0.0,0.0,96,0.00,CLR,,0.28,WeatherDisplay:10.37,2013-01-25 05:23:00,
2013-01-24 22:28:00,33.5,32.5,30.35,West,261,0.0,0.0,96,0.00,CLR,,0.28,WeatherDisplay:10.37,2013-01-25 05:28:00,
2013-01-24 22:33:00,33.5,32.5,30.35,West,261,0.0,0.0,96,0.00,CLR,,0.28,WeatherDisplay:10.37,2013-01-25 05:33:00,
2013-01-24 22:38:00,33.6,32.6,30.35,West,261,1.1,0.0,96,0.00,CLR,,0.28,WeatherDisplay:10.37,2013-01-25 05:38:00,
2013-01-24 22:43:00,33.6,32.6,30.36,West,261,0.0,0.0,96,0.00,CLR,,0.28,WeatherDisplay:10.37,2013-01-25 05:43:00,
2013-01-24 22:48:00,33.6,32.6,30.36,West,261,0.0,0.0,96,0.00,CLR,,0.28,WeatherDisplay:10.37,2013-01-25 05:48:00,
2013-01-24 22:53:00,33.7,32.7,30.36,West,261,0.0,0.0,96,0.00,CLR,,0.28,WeatherDisplay:10.37,2013-01-25 05:53:00,
2013-01-24 22:58:00,33.8,32.8,30.35,West,261,0.0,0.0,96,0.01,RA,,0.29,WeatherDisplay:10.37,2013-01-25 05:58:00,
2013-01-24 23:03:00,33.8,32.8,30.35,West,261,0.0,0.0,96,0.01,RA,,0.29,WeatherDisplay:10.37,2013-01-25 06:03:00,
2013-01-24 23:08:00,33.7,32.7,30.36,West,261,0.0,0.0,96,0.01,CLR,,0.29,WeatherDisplay:10.37,2013-01-25 06:08:00,
2013-01-24 23:13:00,33.7,32.7,30.35,West,261,0.0,0.0,96,0.01,CLR,,0.29,WeatherDisplay:10.37,2013-01-25 06:13:00,
2013-01-24 23:18:00,33.7,32.7,30.36,West,261,0.0,0.0,96,0.01,CLR,,0.29,WeatherDisplay:10.37,2013-01-25 06:18:00,
2013-01-24 23:23:00,33.6,32.6,30.35,West,261,0.0,0.0,96,0.01,CLR,,0.29,WeatherDisplay:10.37,2013-01-25 06:23:00,
2013-01-24 23:28:00,33.6,32.6,30.35,West,261,0.0,0.0,96,0.01,CLR,,0.29,WeatherDisplay:10.37,2013-01-25 06:28:00,
2013-01-24 23:33:00,33.5,32.5,30.35,West,261,0.0,0.0,96,0.01,CLR,,0.29,WeatherDisplay:10.37,2013-01-25 06:33:00,
2013-01-24 23:38:00,33.5,32.5,30.35,West,261,0.0,0.0,96,0.01,CLR,,0.29,WeatherDisplay:10.37,2013-01-25 06:38:00,
2013-01-24 23:43:00,33.4,32.4,30.35,West,261,0.0,0.0,96,0.01,CLR,,0.29,WeatherDisplay:10.37,2013-01-25 06:43:00,
2013-01-24 23:48:00,33.4,32.4,30.35,West,261,0.0,0.0,96,0.01,CLR,,0.29,WeatherDisplay:10.37,2013-01-25 06:48:00,
2013-01-24 23:53:00,33.4,32.4,30.35,West,261,0.0,0.0,96,0.01,CLR,,0.29,WeatherDisplay:10.37,2013-01-25 06:53:00,
2013-01-24 23:58:00,33.4,32.4,30.35,West,261,0.0,0.0,96,0.00,CLR,,0.29,WeatherDisplay:10.37,2013-01-25 06:58:00,